Simultaneous Nadir Overpasses (SNOs) Predictions

Prediction of SNOs between GOES-17 and NOAA-19 Satellite Orbit:

Table of predicted SNOs for the next 14.0 days since TLE Epoch: 7/30/2022
Index Date Time (GOES-17) GOES-17 Lat,Lon NOAA-19 Lat,Lon Distance(km) Time Diff (sec)
1 07/30/2022 04:52:30 -0.02,-137.29 0.65,-134.48 321.62 80
2 08/01/2022 17:10:14 0.01,-137.30 0.48,-139.31 229.83 80
3 08/02/2022 17:01:02 0.01,-137.30 -0.19,-136.42 100.31 80
4 08/03/2022 16:49:11 0.01,-137.30 -0.86,-133.53 430.30 80
5 08/05/2022 05:19:04 -0.00,-137.29 -0.94,-141.33 460.85 80
6 08/06/2022 05:07:13 -0.00,-137.28 -0.25,-138.44 131.37 80
7 08/07/2022 04:58:00 -0.01,-137.27 0.37,-135.53 197.87 80
8 08/09/2022 17:15:46 -0.00,-137.24 0.70,-140.38 358.29 80
9 08/10/2022 17:03:55 -0.01,-137.22 0.02,-137.49 30.24 80
10 08/11/2022 16:54:43 -0.02,-137.21 -0.65,-134.60 298.00 80
